Weather History for Hickory, NC

Change the Weather History Date:

Wednesday, March 9, 2011

  Actual Average Record
Temperature  
Mean Temperature 44 °F -  
Max Temperature 46 °F 58 °F 81 °F (1974)
Min Temperature 41 °F 35 °F 20 °F (1960)
Degree Days  
Heating Degree Days 22    
Moisture  
Dew Point 40 °F    
Average Humidity 90    
Maximum Humidity 100    
Minimum Humidity 51    
Precipitation  
Precipitation 1.12 in - - ()
Sea Level Pressure  
Sea Level Pressure 30.13 in    
Wind  
Wind Speed 6 mph (North)    
Max Wind Speed 17 mph    
Max Gust Speed 22 mph    
Visibility 5 miles    
Events Rain    
Averages and records for this station are not official NWS values.
T = Trace of Precipitation, MM = Missing Value Source: NWS Daily Summary

Daily Weather History Graph

Daily Weather History Graph

Search for Another Location

Airport:

Trip Planner

Search our weather history database for the weather conditions in past years. The results will help you decide how hot, cold, wet, or windy it might be!

Date:

Astronomy

Mar. 09, 2011 Rise Set
Actual Time 6:45 AM EST 6:27 PM EST
Civil Twilight 6:19 AM EST 6:53 PM EST
Nautical Twilight 5:50 AM EST 7:22 PM EST
Astronomical Twilight 5:20 AM EST 7:52 PM EST
Moon 8:47 AM EST (3/9) 11:10 PM EST (3/9)
Length of Visible Light 12h 33m
Length of Day
11h 42m
Waxing Crescent, 20% of the Moon is Illuminated
Mar 9
Waxing Crescent
Mar 12
First Quarter
Mar 19
Full
Mar 26
Last Quarter
Apr 3
New

Hourly Weather History & Observations

Time (EST) Temp. Windchill Dew Point Humidity Pressure Visibility Wind Dir Wind Speed Gust Speed Precip Events Conditions
12:53 AM 45.0 °F - 28.9 °F 53% 30.31 in 10.0 mi Calm Calm - N/A   Overcast
1:53 AM 46.0 °F - 28.9 °F 51% 30.29 in 10.0 mi Calm Calm - N/A   Overcast
2:53 AM 45.0 °F 43.5 °F 30.0 °F 56% 30.28 in 10.0 mi North 3.5 mph - N/A   Overcast
3:16 AM 44.6 °F 42.2 °F 30.2 °F 57% 30.30 in 10.0 mi NE 4.6 mph - N/A   Overcast
3:53 AM 45.0 °F 41.8 °F 30.0 °F 56% 30.26 in 10.0 mi NE 5.8 mph - N/A   Overcast
4:53 AM 45.0 °F 40.1 °F 32.0 °F 60% 30.25 in 10.0 mi ENE 9.2 mph - N/A   Overcast
5:53 AM 44.1 °F 40.1 °F 34.0 °F 68% 30.25 in 10.0 mi ENE 6.9 mph - N/A   Overcast
6:53 AM 42.1 °F 40.2 °F 37.9 °F 85% 30.25 in 8.0 mi North 3.5 mph - 0.01 in Rain Light Rain
7:53 AM 42.1 °F 38.4 °F 39.9 °F 92% 30.26 in 4.0 mi NE 5.8 mph - 0.04 in Rain Light Rain
8:53 AM 41.0 °F 36.4 °F 39.0 °F 93% 30.25 in 5.0 mi NE 6.9 mph - 0.04 in Rain Light Rain
9:14 AM 41.0 °F 35.8 °F 39.2 °F 93% 30.27 in 10.0 mi NE 8.1 mph - 0.00 in Rain Light Rain
9:53 AM 41.0 °F 35.2 °F 39.0 °F 93% 30.23 in 5.0 mi NE 9.2 mph - 0.01 in Rain Light Rain
10:10 AM 41.0 °F 37.1 °F 39.2 °F 93% 30.25 in 5.0 mi NE 5.8 mph - 0.00 in Rain Light Rain
10:37 AM 41.0 °F 36.4 °F 39.2 °F 93% 30.24 in 4.0 mi NNE 6.9 mph - 0.01 in Rain Light Rain
10:53 AM 41.0 °F 38.0 °F 39.0 °F 93% 30.22 in 6.0 mi North 4.6 mph - 0.01 in Rain Light Rain
11:53 AM 41.0 °F 35.8 °F 39.9 °F 96% 30.19 in 5.0 mi NNE 8.1 mph - 0.02 in   Overcast
12:53 PM 42.1 °F 38.4 °F 41.0 °F 96% 30.16 in 2.5 mi North 5.8 mph - 0.00 in Rain Light Rain
1:14 PM 42.8 °F 38.6 °F 41.0 °F 93% 30.17 in 1.8 mi North 6.9 mph - 0.02 in Rain Light Rain
1:53 PM 43.0 °F 38.2 °F 42.1 °F 97% 30.13 in 1.2 mi NNE 8.1 mph - 0.09 in Rain Heavy Rain
2:40 PM 44.6 °F 39.7 °F 42.8 °F 93% 30.11 in 2.0 mi NE 9.2 mph - 0.16 in Rain Heavy Rain
2:53 PM 44.1 °F 37.4 °F 43.0 °F 96% 30.13 in 1.5 mi WNW 13.8 mph - 0.22 in Rain Heavy Rain
3:11 PM 42.8 °F 34.8 °F 39.2 °F 87% 30.16 in 2.0 mi NW 17.3 mph 21.9 mph 0.13 in Rain Heavy Rain
3:24 PM 41.0 °F 33.9 °F 39.2 °F 93% 30.17 in 1.8 mi NW 12.7 mph 20.7 mph 0.23 in Rain Heavy Rain
3:33 PM 41.0 °F 35.8 °F 39.2 °F 93% 30.16 in 1.8 mi North 8.1 mph - 0.29 in Rain Heavy Rain
3:41 PM 41.0 °F 36.4 °F 41.0 °F 100% 30.15 in 2.5 mi North 6.9 mph - 0.31 in Rain Heavy Rain
3:53 PM 42.1 °F 37.7 °F 41.0 °F 96% 30.13 in 2.5 mi NNW 6.9 mph - 0.35 in Rain Heavy Rain
4:03 PM 42.8 °F 40.1 °F 41.0 °F 93% 30.15 in 2.0 mi NNW 4.6 mph - 0.04 in Rain Heavy Rain
4:25 PM 42.8 °F 40.1 °F 41.0 °F 93% 30.14 in 4.0 mi North 4.6 mph - 0.08 in Rain Rain
4:45 PM 42.8 °F 38.6 °F 42.8 °F 100% 30.13 in 6.0 mi NNE 6.9 mph - 0.11 in Rain Rain
4:53 PM 42.1 °F 38.4 °F 41.0 °F 96% 30.11 in 6.0 mi NNE 5.8 mph - 0.12 in Rain Rain
5:05 PM 42.8 °F 39.3 °F 41.0 °F 93% 30.13 in 6.0 mi North 5.8 mph - 0.02 in Rain Rain
5:16 PM 42.8 °F 39.3 °F 42.8 °F 100% 30.12 in 5.0 mi North 5.8 mph - 0.04 in Rain Rain
5:28 PM 42.8 °F 38.0 °F 41.0 °F 93% 30.12 in 6.0 mi NNE 8.1 mph - 0.05 in Rain Rain
5:53 PM 43.0 °F 36.8 °F 41.0 °F 93% 30.07 in 7.0 mi ENE 11.5 mph - 0.08 in Rain Rain
6:53 PM 45.0 °F 38.9 °F 43.0 °F 93% 30.01 in 7.0 mi East 12.7 mph 18.4 mph 0.07 in Rain Light Rain
7:00 PM 44.6 °F 38.4 °F 42.8 °F 93% 30.03 in 7.0 mi East 12.7 mph 19.6 mph 0.01 in Rain Light Rain
7:12 PM 44.6 °F 38.4 °F 44.6 °F 100% 30.03 in 7.0 mi East 12.7 mph 21.9 mph 0.01 in Rain Light Rain
7:53 PM 45.0 °F 43.5 °F 45.0 °F 100% 30.04 in 7.0 mi NNW 3.5 mph - 0.01 in   Overcast
8:53 PM 45.0 °F 41.2 °F 45.0 °F 100% 30.01 in 4.0 mi NNE 6.9 mph - N/A   Overcast
9:18 PM 46.4 °F 42.9 °F 44.6 °F 93% 30.01 in 2.0 mi NE 6.9 mph - N/A   Overcast
9:27 PM 46.4 °F 43.5 °F 44.6 °F 93% 30.00 in 1.5 mi NNE 5.8 mph - N/A   Overcast
9:48 PM 46.4 °F 41.5 °F 44.6 °F 93% 30.03 in 1.0 mi WNW 10.4 mph - N/A   Mist
9:53 PM 45.0 °F 39.7 °F 45.0 °F 100% 30.01 in 1.5 mi WNW 10.4 mph - N/A   Overcast
10:00 PM 44.6 °F 39.2 °F 44.6 °F 100% 30.03 in 3.0 mi WNW 10.4 mph - N/A   Overcast
10:24 PM 44.6 °F 42.2 °F 44.6 °F 100% 30.01 in 2.5 mi WNW 4.6 mph - N/A   Overcast
10:49 PM 44.6 °F 41.4 °F 44.6 °F 100% 30.01 in 1.5 mi West 5.8 mph - 0.01 in Rain Light Rain
10:53 PM 45.0 °F 41.8 °F 44.1 °F 97% 29.99 in 1.2 mi West 5.8 mph - 0.03 in Rain Heavy Rain
11:09 PM 44.6 °F 42.2 °F 44.6 °F 100% 30.00 in 2.0 mi WNW 4.6 mph - 0.01 in Rain Light Rain
11:34 PM 44.6 °F 40.7 °F 44.6 °F 100% 30.00 in 4.0 mi WNW 6.9 mph - 0.02 in Rain Light Rain
11:53 PM 44.1 °F 42.5 °F 44.1 °F 100% 29.96 in 4.0 mi NNW 3.5 mph - 0.02 in Rain Light Rain